Regional Weather Roundup
Issued by NWS

Home | Current Version | Previous Version | Graphics & Text | Print | Product List | Glossary On
Versions: 1 2 3 4 5 6 7 8 9 10 11 12 13 14 15 16 17 18 19 20 21 22 23 24 25 26 27 28 29 30 31 32 33 34 35 36 37 38 39 40 41 42 43 44 45 46 47 48 49 50
000
ASUS43 KFSD 311702
RWRSD

WEATHER ROUNDUP FOR SOUTH DAKOTA
NATIONAL WEATHER SERVICE SIOUX FALLS SD
1200 PM CDT TUE MAY 31 2016

NOTE: "FAIR" INDICATES FEW OR NO CLOUDS BELOW 12,000 FEET WITH NO
SIGNIFICANT WEATHER AND/OR OBSTRUCTIONS TO VISIBILITY.


SDZ001>005-009-010-012>017-311800-
NORTHWEST AND NORTH CENTRAL SOUTH DAKOTA

CITY           SKY/WX    TMP DP  RH WIND       PRES   REMARKS
BUFFALO          N/A     51  46  83 W44G55    29.79F
FAITH            N/A     54  40  59 W30G44    29.87S
MOBRIDGE       MOSUNNY   62  45  53 W23G31    29.79S
$$

SDZ012>016-024>037-041>051-057-063-072>074-311800-
SOUTHWEST AND SOUTH CENTRAL SOUTH DAKOTA

CITY           SKY/WX    TMP DP  RH WIND       PRES   REMARKS
RAPID CTY ARPT CLOUDY    63  34  33 NW21G33   29.96S
PIERRE         PTSUNNY   65  41  41 W21G30    29.87F
CUSTER         PTSUNNY   53  32  44 W25G40    30.03R
ELLSWORTH AFB  CLOUDY    61  37  40 NW17      29.95R
PHILIP         PTSUNNY   67  40  37 NW29G37   29.91F
PINE RIDGE     SUNNY     64  34  32 W23G33    30.02F
WINNER         FAIR      68  44  42 W14       29.94F
$$

SDZ004>011-016>023-039-040-311800-
NORTHEAST SOUTH DAKOTA

CITY           SKY/WX    TMP DP  RH WIND       PRES   REMARKS
ABERDEEN       PTSUNNY   62  46  55 W15G25    29.82F
WATERTOWN      SUNNY     64  47  53 W18       29.87S
BROOKINGS      SUNNY     65  48  54 W17       29.90R
SISSETON         N/A     66  48  52 W17G28    29.80F
$$

SDZ017-020-022-023-036>040-048>070-311800-
SOUTHEAST SOUTH DAKOTA

CITY           SKY/WX    TMP DP  RH WIND       PRES   REMARKS
SIOUX FALLS    MOSUNNY   66  49  54 W14G22    29.93S
HURON          SUNNY     67  45  45 NW20G30   29.89S
MITCHELL       SUNNY     67  46  47 W14       29.94R
YANKTON        SUNNY     66  46  48 NW14G20   29.96S
$$

ABBREVIATIONS USED IN REMARKS
   TC - TEMPERATURE IN CELSIUS
  WCI - WIND CHILL INDEX
   HX - HEAT INDEX
  VSB - VISIBILITY





USA.gov is the U.S. government's official web portal to all federal, state and local government web resources and services.